This is the latest recevied weather packets stored in our database for station/object HP1CDW-10. If no packets are shown the sender has not sent any weather packets the latest 10 day(s).
| Time | Temp. | Humidity | Pressure | Rain* | Wind** | Luminosity | Snow |
|---|---|---|---|---|---|---|---|
| 1777964737 | 35.56° C | 46% | 1002.6 hPa | - | - | - | - |
| 1777964133 | 35° C | 48% | 1002.7 hPa | - | - | - | - |
| 1777963528 | 35.56° C | 46% | 1002.9 hPa | - | - | - | - |
| 1777962923 | 35.56° C | 46% | 1002.9 hPa | - | - | - | - |
| 1777962318 | 35.56° C | 46% | 1003 hPa | - | - | - | - |
| 1777961713 | 35.56° C | 45% | 1003.2 hPa | - | - | - | - |
| 1777961109 | 35.56° C | 45% | 1003.3 hPa | - | - | - | - |
| 1777958689 | 35° C | 48% | 1003.6 hPa | - | - | - | - |
| 1777958085 | 35.56° C | 47% | 1003.6 hPa | - | - | - | - |
| 1777957480 | 35° C | 48% | 1003.8 hPa | - | - | - | - |
| 1777956875 | 36.11° C | 45% | 1003.9 hPa | - | - | - | - |
| 1777956270 | 36.11° C | 45% | 1003.9 hPa | - | - | - | - |
| 1777955666 | 36.11° C | 43% | 1003.9 hPa | - | - | - | - |
| 1777955061 | 36.11° C | 44% | 1004 hPa | - | - | - | - |
| 1777954456 | 36.67° C | 43% | 1004 hPa | - | - | - | - |
| 1777953851 | 36.67° C | 43% | 1004 hPa | - | - | - | - |
| 1777953246 | 36.67° C | 44% | 1004 hPa | - | - | - | - |
| 1777952642 | 36.11° C | 44% | 1004 hPa | - | - | - | - |
| 1777952037 | 36.67° C | 43% | 1003.9 hPa | - | - | - | - |
| 1777951432 | 36.67° C | 43% | 1003.7 hPa | - | - | - | - |
| 1777950827 | 36.67° C | 43% | 1003.7 hPa | - | - | - | - |
| 1777950223 | 36.67° C | 43% | 1003.6 hPa | - | - | - | - |
| 1777949618 | 36.67° C | 42% | 1003.6 hPa | - | - | - | - |
| 1777949013 | 36.67° C | 42% | 1003.5 hPa | - | - | - | - |
| 1777948408 | 37.22° C | 42% | 1003.4 hPa | - | - | - | - |
* Rain since midnight (hover to see other rain measurements)
** Current wind speed in m/s (hover to see current wind gust speed)